FW2422 Weather Reports


Display with metric or nautical units.
time (UTC)temp
F
wind
direction
speed
MPH
gust
MPH
rain 1hr
in
rain 24hr
in
rain mn
in
humidity
%
barometer
mb
20260901041523 88 127 0.0 0.0 0.00 0.00 0.00 45 1013.8
20260901040015 89 119 0.0 2.0 0.00 0.00 0.00 44 1013.6
20260901034521 89 145 0.0 0.0 0.00 0.00 0.00 44 1013.6
20260901033014 90 117 0.0 1.0 0.00 0.00 0.00 43 1013.6
20260901031531 90 152 0.0 2.0 0.00 0.00 0.00 43 1013.5
20260901030020 91 135 0.0 2.0 0.00 0.00 0.00 42 1013.4
20260901024521 91 174 0.0 2.0 0.00 0.00 0.00 41 1013.2
20260901023011 91 172 0.0 3.0 0.00 0.00 0.00 40 1013.1
20260901021511 92 162 0.0 2.0 0.00 0.00 0.00 40 1013.1
20260901020009 92 147 0.0 2.0 0.00 0.00 0.00 39 1012.9
20260901014508 93 101 0.0 1.0 0.00 0.00 0.00 38 1012.9
20260901013009 94 134 0.0 2.0 0.00 0.00 0.00 37 1012.8
20260901011508 94 122 0.0 2.0 0.00 0.00 0.00 36 1012.8
20260901010014 95 151 0.0 3.0 0.00 0.00 0.00 34 1012.6
20260901004507 96 154 0.0 5.0 0.00 0.00 0.00 32 1012.5
20260901003006 97 171 0.0 6.0 0.00 0.00 0.00 31 1012.5
20260901001513 99 136 2.0 10.0 0.00 0.00 0.00 29 1012.5
20260901000012 100 205 0.0 4.0 0.00 0.00 0.00 28 1012.5
20260831234504 100 291 2.0 8.0 0.00 0.00 0.00 28 1012.5
20260831233004 101 165 0.0 5.0 0.00 0.00 0.00 28 1012.4
20260831231503 101 124 2.0 7.0 0.00 0.00 0.00 27 1012.4
20260831230140 101 172 0.0 6.0 0.00 0.00 0.00 28 1012.5
20260831224500 101 174 0.0 8.0 0.00 0.00 0.00 28 1012.6
20260831223101 101 214 2.0 8.0 0.00 0.00 0.00 28 1012.8
20260831221627 101 245 0.0 8.0 0.00 0.00 0.00 27 1012.8
20260831220057 101 109 2.0 9.0 0.00 0.00 0.00 28 1012.9
20260831214555 101 110 0.0 7.0 0.00 0.00 0.00 30 1013.1
20260831213056 101 281 1.0 6.0 0.00 0.00 0.00 30 1013.2
20260831211603 100 203 3.0 9.0 0.00 0.00 0.00 31 1013.3
20260831210053 98 178 2.0 5.0 0.00 0.00 0.00 31 1013.5
20260831204552 99 205 1.0 6.0 0.00 0.00 0.00 29 1013.9
20260831203052 100 134 1.0 9.0 0.00 0.00 0.00 31 1014.0
20260831201554 100 68 2.0 10.0 0.00 0.00 0.00 30 1014.2
20260831200050 98 102 1.0 5.0 0.00 0.00 0.00 33 1014.4
20260831194624 97 83 3.0 8.0 0.00 0.00 0.00 34 1014.7
20260831183007 99 94 4.0 10.0 0.00 0.00 0.00 35 1015.2
20260831181505 99 195 1.0 7.0 0.00 0.00 0.00 35 1015.4
20260831180003 99 77 1.0 6.0 0.00 0.00 0.00 36 1015.7
20260831174502 99 166 1.0 7.0 0.00 0.00 0.00 37 1016.0
20260831173100 98 355 1.0 6.0 0.00 0.00 0.00 38 1016.2
20260831171557 97 119 1.0 6.0 0.00 0.00 0.00 40 1016.3
20260831170130 96 165 1.0 6.0 0.00 0.00 0.00 41 1016.5
20260831164551 95 100 0.0 5.0 0.00 0.00 0.00 42 1016.5
20260831163049 94 178 2.0 6.0 0.00 0.00 0.00 43 1016.5
20260831161550 94 205 2.0 7.0 0.00 0.00 0.00 44 1016.6
20260831160043 93 146 0.0 6.0 0.00 0.00 0.00 45 1016.7
20260831154542 92 195 2.0 7.0 0.00 0.00 0.00 47 1016.8
20260831153037 91 253 1.0 5.0 0.00 0.00 0.00 50 1016.8
20260831151535 90 201 0.0 6.0 0.00 0.00 0.00 52 1016.7
20260831150033 90 270 0.0 3.0 0.00 0.00 0.00 54 1016.6
20260831144535 89 134 0.0 5.0 0.00 0.00 0.00 56 1016.6
20260831133056 84 136 0.0 3.0 0.00 0.00 0.00 65 1016.2
20260831114511 79 138 0.0 1.0 0.00 0.00 0.00 70 1014.8
20260831113007 79 138 0.0 0.0 0.00 0.00 0.00 70 1014.6
20260831104546 80 137 0.0 1.0 0.00 0.00 0.00 67 1014.3
20260831103057 80 137 0.0 0.0 0.00 0.00 0.00 66 1014.3
20260831101541 81 137 0.0 0.0 0.00 0.00 0.00 65 1014.3
20260831100041 81 137 0.0 0.0 0.00 0.00 0.00 64 1014.1
20260831094539 82 150 0.0 0.0 0.00 0.00 0.00 63 1014.1
20260831093036 82 131 0.0 1.0 0.00 0.00 0.00 61 1014.1
20260831091533 83 211 0.0 2.0 0.00 0.00 0.00 60 1013.9
20260831090032 83 133 0.0 2.0 0.00 0.00 0.00 59 1013.8
20260831084530 84 112 0.0 3.0 0.00 0.00 0.00 58 1013.8
20260831083027 84 191 0.0 4.0 0.00 0.00 0.00 57 1013.7
20260831081525 85 217 0.0 3.0 0.00 0.00 0.00 56 1013.6
20260831080045 85 273 0.0 6.0 0.00 0.00 0.00 55 1013.5
20260831074522 85 264 0.0 3.0 0.00 0.00 0.00 53 1013.5
20260831073030 85 209 0.0 3.0 0.00 0.00 0.00 53 1013.4
20260831064506 86 152 0.0 2.0 0.00 0.00 0.00 51 1013.5
20260831063005 86 143 0.0 4.0 0.00 0.00 0.00 51 1013.4
20260831061503 86 180 0.0 3.0 0.00 0.00 0.00 51 1013.5
20260831060002 87 198 0.0 3.0 0.00 0.00 0.00 50 1013.5
20260831054502 87 168 0.0 1.0 0.00 0.00 0.00 50 1013.5
20260831053059 87 153 0.0 1.0 0.00 0.00 0.00 49 1013.5
20260831051555 88 176 0.0 0.0 0.00 0.00 0.00 48 1013.3
20260831050053 88 202 0.0 0.0 0.00 0.00 0.00 47 1013.3
20260831044555 89 165 0.0 3.0 0.00 0.00 0.00 46 1013.3
20260831043053 89 171 0.0 3.0 0.00 0.00 0.00 45 1013.2